Simultaneous Nadir Overpasses (SNOs) Predictions

Prediction of SNOs between GOES-16 and NOAA-20 Satellite Orbit:

Table of predicted SNOs for the next 14.0 days since TLE Epoch: 3/16/2024
Index Date Time (GOES-16) GOES-16 Lat,Lon NOAA-20 Lat,Lon Distance(km) Time Diff (sec)
1 03/17/2024 06:32:37 -0.05, -75.21 0.25, -76.41 138.14 80
2 03/18/2024 06:11:12 -0.05, -75.21 -0.80, -71.89 379.06 80
3 03/19/2024 18:33:07 0.04, -75.22 -0.40, -77.18 223.95 80
4 03/20/2024 18:17:02 0.03, -75.23 0.60, -72.65 293.91 80
5 03/22/2024 06:38:48 -0.03, -75.25 0.60, -77.90 303.37 80
6 03/23/2024 06:17:24 -0.03, -75.26 -0.46, -73.38 214.83 80
7 03/24/2024 18:41:59 0.02, -75.28 -0.73, -78.67 386.86 80
8 03/25/2024 18:20:34 0.03, -75.30 0.27, -74.14 131.85 80
9 03/27/2024 06:45:00 -0.02, -75.33 0.92, -79.40 464.15 80
10 03/28/2024 06:23:35 -0.03, -75.35 -0.15, -74.87 54.61 80
